User: anonymous   Login
Location: Unspecified
(0.0000°N, 0.0000°E)
Time: 00:52:04
(UTC+00:00)
Language:

NOSS 2-1 (C) - Orbit

View from above orbital plane
View from above orbital plane
View from above satellite
View from above satellite

Ground track
Ground track

The orbit data is extracted from the following two-line orbital elements,

1 20691U 90050C   25142.52053965  .00004425  00000-0  34186-3 0  9991
2 20691  63.2952 182.7261 0890958  77.6738 292.2480 13.58837465 53118
Epoch (UTC): 22 May 2025 12:29:34
Eccentricity: 0.0890958
inclination: 63.2952°
perigee height: 379 km
apogee height: 1701 km
right ascension of ascending node: 182.7261°
argument of perigee: 77.6738°
revolutions per day: 13.58837465
mean anomaly at epoch: 292.2480°
orbit number at epoch: 5311

The dashed part of the orbit path shows where the satellite is in the earth's shadow,  

DLR